EW1390 Weather Reports


Display with metric or nautical units.
time (UTC)temp
F
wind
direction
speed
MPH
gust
MPH
rain 1hr
in
rain 24hr
in
rain mn
in
humidity
%
barometer
mb
20260831094524 55 263 0.0 0.0 0.00 0.00 0.00 73 1003.6
20260831093035 55 263 0.0 0.0 0.00 0.00 0.00 72 1003.5
20260831091518 55 263 0.0 0.0 0.00 0.00 0.00 72 1003.6
20260831090016 55 263 0.0 0.0 0.00 0.00 0.00 71 1003.6
20260831084514 56 263 0.0 0.0 0.00 0.00 0.00 70 1003.6
20260831083013 56 263 0.0 0.0 0.00 0.00 0.00 69 1003.7
20260831081510 57 263 0.0 0.0 0.00 0.00 0.00 68 1003.8
20260831080007 57 263 0.0 0.0 0.00 0.00 0.00 67 1004.0
20260831074506 57 263 0.0 0.0 0.00 0.00 0.00 67 1004.0
20260831073006 58 263 0.0 0.0 0.00 0.00 0.00 66 1004.0
20260831071502 58 263 0.0 0.0 0.00 0.00 0.00 66 1004.0
20260831070059 58 263 0.0 0.0 0.00 0.00 0.00 65 1004.1
20260831064613 59 263 0.0 0.0 0.00 0.00 0.00 65 1004.3
20260831063105 59 263 0.0 0.0 0.00 0.00 0.00 64 1004.2
20260831061559 59 263 0.0 0.0 0.00 0.00 0.00 63 1004.2
20260831060105 60 263 0.0 0.0 0.00 0.00 0.00 62 1004.3
20260831054556 61 263 0.0 0.0 0.00 0.00 0.00 61 1004.4
20260831053056 61 263 0.0 0.0 0.00 0.00 0.00 60 1004.4
20260831051604 62 263 0.0 0.0 0.00 0.00 0.00 58 1004.4
20260831050055 62 263 0.0 0.0 0.00 0.00 0.00 57 1004.4
20260831044554 63 263 0.0 0.0 0.00 0.00 0.00 57 1004.5
20260831043054 64 263 0.0 0.0 0.00 0.00 0.00 55 1004.4
20260831041552 65 263 0.0 0.0 0.00 0.00 0.00 54 1004.2
20260831040051 66 263 0.0 0.0 0.00 0.00 0.00 53 1004.1
20260831034551 67 263 0.0 0.0 0.00 0.00 0.00 51 1003.9
20260831033054 68 263 0.0 0.0 0.00 0.00 0.00 51 1003.7
20260831031549 69 263 0.0 0.0 0.00 0.00 0.00 51 1003.7
20260831030050 70 263 0.0 1.0 0.00 0.00 0.00 50 1003.6
20260831024556 72 263 0.0 0.0 0.00 0.00 0.00 48 1003.5
20260831023056 74 263 0.0 2.0 0.00 0.00 0.00 45 1003.4
20260831021547 76 263 0.0 2.0 0.00 0.00 0.00 43 1003.4
20260831020108 78 263 0.0 0.0 0.00 0.00 0.00 40 1003.5
20260831014546 80 263 0.0 1.0 0.00 0.00 0.00 38 1003.5
20260831013045 82 263 0.0 2.0 0.00 0.00 0.00 35 1003.5
20260831011556 83 263 0.0 0.0 0.00 0.00 0.00 33 1003.5
20260831010045 84 263 0.0 4.0 0.00 0.00 0.00 29 1003.5
20260831004548 86 263 0.0 2.0 0.00 0.00 0.00 30 1003.6
20260831003042 85 263 0.0 3.0 0.00 0.00 0.00 30 1003.6
20260831001542 86 223 2.0 4.0 0.00 0.00 0.00 28 1003.6
20260831000041 87 214 0.0 5.0 0.00 0.00 0.00 28 1003.6
20260830234639 87 38 0.0 4.0 0.00 0.00 0.00 28 1003.7
20260830233040 87 195 0.0 4.0 0.00 0.00 0.00 29 1003.9
20260830231537 87 190 0.0 4.0 0.00 0.00 0.00 29 1003.9
20260830230033 87 225 1.0 6.0 0.00 0.00 0.00 29 1004.0
20260830224535 87 175 0.0 3.0 0.00 0.00 0.00 29 1004.1
20260830223031 87 292 0.0 5.0 0.00 0.00 0.00 29 1004.2
20260830221529 87 107 0.0 4.0 0.00 0.00 0.00 28 1004.4
20260830220025 86 107 0.0 5.0 0.00 0.00 0.00 29 1004.5
20260830214523 86 221 2.0 6.0 0.00 0.00 0.00 28 1004.8
20260830213035 86 229 0.0 7.0 0.00 0.00 0.00 29 1004.9
20260830211534 86 277 1.0 7.0 0.00 0.00 0.00 29 1005.1
20260830210044 86 189 1.0 4.0 0.00 0.00 0.00 28 1005.0
20260830204520 86 126 0.0 5.0 0.00 0.00 0.00 28 1005.0
20260830203030 86 201 2.0 10.0 0.00 0.00 0.00 28 1005.1
20260830201517 86 125 0.0 4.0 0.00 0.00 0.00 28 1005.0
20260830200015 85 311 0.0 8.0 0.00 0.00 0.00 29 1005.0
20260830194514 85 134 1.0 7.0 0.00 0.00 0.00 29 1005.2
20260830193018 85 252 2.0 4.0 0.00 0.00 0.00 29 1005.3
20260830191517 84 125 1.0 6.0 0.00 0.00 0.00 29 1005.4
20260830190008 84 235 0.0 5.0 0.00 0.00 0.00 30 1005.4
20260830184508 84 262 1.0 6.0 0.00 0.00 0.00 31 1005.5
20260830183004 84 201 1.0 4.0 0.00 0.00 0.00 30 1005.7
20260830181503 83 109 1.0 3.0 0.00 0.00 0.00 29 1005.6
20260830180059 82 205 0.0 6.0 0.00 0.00 0.00 31 1005.6
20260830174600 81 247 0.0 2.0 0.00 0.00 0.00 35 1005.5
20260830173051 79 247 0.0 3.0 0.00 0.00 0.00 37 1005.5
20260830171546 74 247 0.0 2.0 0.00 0.00 0.00 44 1005.4
20260830170042 70 247 0.0 2.0 0.00 0.00 0.00 56 1005.2
20260830164541 65 247 0.0 0.0 0.00 0.00 0.00 71 1005.4
20260830163032 63 247 0.0 1.0 0.00 0.00 0.00 77 1005.3
20260830161534 60 247 0.0 0.0 0.00 0.00 0.00 79 1005.4
20260830160023 58 247 0.0 0.0 0.00 0.00 0.00 80 1005.4
20260830154525 57 247 0.0 0.0 0.00 0.00 0.00 80 1005.5
20260830153022 55 247 0.0 0.0 0.00 0.00 0.00 80 1005.4
20260830151517 54 247 0.0 0.0 0.00 0.00 0.00 80 1005.6
20260830150016 53 247 0.0 0.0 0.00 0.00 0.00 79 1005.5
20260830144515 53 247 0.0 0.0 0.00 0.00 0.00 79 1005.6
20260830143023 52 247 0.0 0.0 0.00 0.00 0.00 79 1005.6
20260830141516 52 247 0.0 0.0 0.00 0.00 0.00 79 1005.5
20260830140016 52 247 0.0 0.0 0.00 0.00 0.00 78 1005.3
20260830134513 52 247 0.0 0.0 0.00 0.00 0.00 78 1005.1
20260830133010 52 247 0.0 0.0 0.00 0.00 0.00 78 1004.9
20260830131509 52 247 0.0 1.0 0.00 0.00 0.00 78 1004.9
20260830130008 52 247 0.0 0.0 0.00 0.00 0.00 78 1004.9
20260830124509 52 247 0.0 0.0 0.00 0.00 0.00 78 1004.9
20260830123006 52 247 0.0 0.0 0.00 0.00 0.00 77 1004.8
20260830121504 52 247 0.0 0.0 0.00 0.00 0.00 76 1004.7
20260830120004 52 247 0.0 0.0 0.00 0.00 0.00 76 1004.7
20260830114503 52 247 0.0 1.0 0.00 0.00 0.00 76 1004.7
20260830113002 52 247 0.0 0.0 0.00 0.00 0.00 76 1004.8
20260830111601 53 247 0.0 0.0 0.00 0.00 0.00 75 1004.9
20260830110059 53 247 0.0 0.0 0.00 0.00 0.00 75 1004.8
20260830104559 53 247 0.0 0.0 0.00 0.00 0.00 74 1004.7
20260830103057 53 247 0.0 0.0 0.00 0.00 0.00 74 1004.8
20260830101605 54 247 0.0 0.0 0.00 0.00 0.00 73 1004.8
20260830100054 54 247 0.0 0.0 0.00 0.00 0.00 73 1004.8